EW9528 Weather Reports


Display with metric or nautical units.
time (UTC)temp
F
wind
direction
speed
MPH
gust
MPH
rain 1hr
in
rain 24hr
in
rain mn
in
humidity
%
barometer
mb
20260506155012 52 2 9.0 14.0 0.00 0.09 0.08 31 1021.1
20260506154011 53 8 8.0 13.0 0.00 0.09 0.08 35 1020.9
20260506153012 52 9 7.0 11.0 0.00 0.09 0.08 40 1020.8
20260506152012 52 30 5.0 13.0 0.00 0.09 0.08 41 1020.8
20260506150111 51 24 4.0 7.0 0.00 0.09 0.08 48 1020.6
20260506145210 51 73 3.0 7.0 0.00 0.09 0.08 50 1020.4
20260506144228 50 32 2.0 5.0 0.00 0.09 0.08 54 1020.4
20260506143211 49 105 1.0 4.0 0.00 0.09 0.08 56 1020.4
20260506142230 48 67 1.0 4.0 0.00 0.09 0.08 55 1020.4
20260506141313 47 45 2.0 3.0 0.00 0.10 0.08 58 1020.3
20260506140313 47 45 5.0 6.0 0.00 0.10 0.08 59 1020.1
20260506135327 46 45 3.0 6.0 0.00 0.10 0.08 63 1019.7
20260506134311 46 45 3.0 4.0 0.00 0.10 0.08 63 1019.6
20260506134212 46 38 3.0 5.0 0.00 0.10 0.08 63 1019.7
20260506133215 44 354 1.0 4.0 0.00 0.10 0.08 65 1019.3
20260506132211 44 292 2.0 5.0 0.00 0.10 0.08 66 1019.1
20260506131212 43 270 0.0 1.0 0.00 0.10 0.08 67 1019.0
20260506130212 43 273 3.0 5.0 0.00 0.10 0.08 68 1018.7
20260506125310 43 244 5.0 8.0 0.00 0.10 0.08 68 1018.5
20260506124311 43 337 0.0 1.0 0.00 0.10 0.08 69 1018.5
20260506123310 43 281 3.0 6.0 0.00 0.10 0.08 69 1018.3
20260506122312 43 207 5.0 7.0 0.00 0.10 0.08 68 1018.3
20260506120313 43 287 3.0 7.0 0.00 0.10 0.08 67 1018.2
20260506120213 43 232 2.0 6.0 0.00 0.10 0.08 67 1018.2
20260506115213 43 244 3.0 4.0 0.00 0.10 0.08 66 1018.3
20260506113410 43 13 2.0 4.0 0.00 0.10 0.08 69 1018.2
20260506111412 43 292 1.0 4.0 0.00 0.10 0.08 70 1018.2
20260506110511 43 294 2.0 3.0 0.00 0.10 0.08 71 1017.9
20260506105511 43 314 4.0 12.0 0.00 0.10 0.08 76 1017.5
20260506104610 44 328 2.0 5.0 0.00 0.10 0.08 79 1017.5
20260506103629 44 293 2.0 5.0 0.00 0.10 0.08 80 1017.3
20260506102714 44 307 2.0 5.0 0.01 0.10 0.08 83 1017.0
20260506101812 44 278 6.0 9.0 0.03 0.10 0.08 84 1017.0
20260506100813 44 326 7.0 12.0 0.05 0.10 0.08 85 1016.8
20260506100727 44 299 6.0 11.0 0.05 0.10 0.08 86 1016.8
20260506095813 44 318 4.0 8.0 0.06 0.10 0.08 87 1016.7
20260506094910 44 337 0.0 0.0 0.08 0.10 0.08 86 1016.4
20260506093911 44 335 3.0 6.0 0.08 0.10 0.08 86 1016.3
20260506093828 44 337 4.0 7.0 0.08 0.10 0.08 85 1016.2
20260506092829 44 10 4.0 6.0 0.07 0.09 0.07 82 1016.3
20260506091915 45 18 6.0 10.0 0.05 0.07 0.05 79 1016.4
20260506091011 47 6 9.0 16.0 0.04 0.06 0.03 75 1016.2
20260506090913 47 1 10.0 16.0 0.03 0.05 0.03 75 1016.3
20260506085915 49 319 5.0 9.0 0.02 0.04 0.02 70 1015.3
20260506084911 49 246 7.0 13.0 0.00 0.02 0.00 71 1014.5
20260506083927 49 194 3.0 5.0 0.00 0.02 0.00 69 1014.5
20260506082913 49 234 7.0 11.0 0.00 0.02 0.00 70 1014.1
20260506082011 48 314 2.0 4.0 0.00 0.02 0.00 72 1014.2
20260506081012 49 284 3.0 5.0 0.00 0.02 0.00 72 1014.2
20260506073112 50 259 3.0 7.0 0.00 0.02 0.00 68 1014.6
20260506072210 50 288 5.0 9.0 0.00 0.02 0.00 66 1014.7
20260506071212 51 285 5.0 8.0 0.00 0.02 0.00 65 1014.8
20260506070212 51 306 3.0 5.0 0.00 0.02 0.00 63 1014.9
20260506070113 51 300 3.0 4.0 0.00 0.02 0.00 63 1015.0
20260506062310 49 247 3.0 5.0 0.00 0.02 0.00 69 1014.4
20260506062211 48 247 2.0 3.0 0.00 0.02 0.00 68 1014.4
20260506061212 48 225 2.0 2.0 0.00 0.02 0.00 71 1014.1
20260506060227 47 225 0.0 0.0 0.00 0.02 0.00 73 1014.1
20260506051416 46 337 0.0 0.0 0.00 0.02 0.02 72 1013.3
20260506050417 45 337 0.0 0.0 0.00 0.02 0.02 73 1013.0
20260506044516 45 337 0.0 0.0 0.00 0.02 0.02 72 1013.3
20260506044414 45 337 0.0 1.0 0.00 0.02 0.02 72 1013.2
20260506043416 46 202 0.0 0.0 0.00 0.02 0.02 70 1013.1
20260506042514 46 202 0.0 0.0 0.00 0.02 0.02 69 1013.3
20260506041517 47 225 0.0 0.0 0.00 0.02 0.02 69 1013.2
20260506040517 47 225 0.0 1.0 0.00 0.02 0.02 68 1013.3
20260506040431 47 225 1.0 2.0 0.00 0.02 0.02 68 1013.2
20260506035431 48 225 0.0 0.0 0.00 0.02 0.02 68 1013.2
20260506034416 48 225 0.0 0.0 0.00 0.02 0.02 66 1013.1
20260506033415 48 225 0.0 0.0 0.00 0.02 0.02 66 1013.0
20260506031517 50 225 0.0 0.0 0.00 0.02 0.02 61 1013.0
20260506030516 51 225 0.0 0.0 0.00 0.02 0.02 60 1013.0
20260506030430 51 225 0.0 0.0 0.00 0.02 0.02 61 1012.9
20260506025515 51 225 0.0 0.0 0.00 0.02 0.02 59 1013.0
20260506025432 52 225 0.0 0.0 0.00 0.02 0.02 59 1012.9
20260506024418 52 135 0.0 1.0 0.00 0.02 0.02 58 1012.8
20260506024316 52 135 0.0 0.0 0.00 0.02 0.02 58 1012.8
20260506023315 53 125 1.0 2.0 0.00 0.02 0.02 57 1012.6
20260506023217 53 112 0.0 1.0 0.00 0.02 0.02 56 1012.5
20260506023115 53 112 0.0 2.0 0.00 0.02 0.02 56 1012.7
20260506022117 54 157 2.0 3.0 0.00 0.02 0.02 55 1012.6
20260506020115 55 181 3.0 5.0 0.00 0.02 0.02 51 1012.3
20260506015115 56 173 4.0 6.0 0.00 0.02 0.02 48 1012.5
20260506014215 56 166 3.0 5.0 0.00 0.02 0.02 46 1012.4
20260506013232 57 157 5.0 8.0 0.00 0.02 0.02 46 1012.5
20260506012314 57 158 5.0 6.0 0.00 0.02 0.02 46 1012.4
20260506010315 57 153 6.0 8.0 0.00 0.02 0.02 45 1012.5
20260506005331 58 155 2.0 4.0 0.00 0.02 0.02 45 1012.5
20260506004416 58 187 4.0 5.0 0.00 0.02 0.02 44 1012.4
20260506003431 59 161 6.0 8.0 0.00 0.02 0.02 45 1012.6
20260506002515 58 148 4.0 6.0 0.00 0.02 0.02 45 1012.4
20260506001530 58 173 4.0 5.0 0.00 0.02 0.02 46 1012.5
20260506000618 58 172 6.0 8.0 0.00 0.02 0.02 45 1012.5
20260505233617 56 180 1.0 3.0 0.00 0.02 0.02 52 1012.6
20260505232715 55 225 2.0 3.0 0.01 0.02 0.02 55 1012.6
20260505231715 54 202 2.0 3.0 0.01 0.02 0.02 57 1012.8
20260505230714 53 247 1.0 2.0 0.01 0.02 0.02 59 1012.9
20260505225715 53 208 1.0 2.0 0.01 0.02 0.02 59 1012.9
20260505223816 55 157 1.0 2.0 0.01 0.02 0.02 49 1013.0
20260505222915 56 112 0.0 1.0 0.00 0.01 0.01 47 1013.2
20260505221915 55 135 0.0 0.0 0.00 0.01 0.01 46 1013.3
20260505220915 55 157 1.0 3.0 0.00 0.01 0.01 48 1013.3
20260505215915 55 156 3.0 5.0 0.00 0.01 0.01 49 1013.3
20260505214933 55 107 3.0 5.0 0.00 0.01 0.01 50 1013.4
20260505214016 54 136 3.0 5.0 0.00 0.01 0.01 51 1013.5
20260505213115 54 138 2.0 5.0 0.00 0.01 0.01 51 1013.5
20260505212115 55 157 3.0 6.0 0.00 0.01 0.01 49 1013.5
20260505211115 55 176 3.0 7.0 0.00 0.01 0.01 48 1013.6
20260505210115 55 179 3.0 5.0 0.00 0.01 0.01 49 1013.5
20260505203117 55 157 3.0 5.0 0.00 0.01 0.01 49 1013.7
20260505203015 55 131 1.0 4.0 0.00 0.01 0.01 49 1013.5
20260505200132 53 149 3.0 7.0 0.00 0.01 0.01 52 1013.8
20260505195117 53 163 4.0 6.0 0.00 0.01 0.01 52 1013.9
20260505194118 53 171 6.0 11.0 0.00 0.01 0.01 54 1013.8
20260505193114 53 165 4.0 7.0 0.00 0.01 0.01 54 1014.0
20260505192116 53 165 4.0 6.0 0.00 0.01 0.01 53 1014.0
20260505191216 53 143 4.0 6.0 0.00 0.01 0.01 54 1014.0
20260505190215 53 166 5.0 8.0 0.00 0.01 0.01 55 1014.2
20260505185234 52 150 5.0 8.0 0.00 0.01 0.01 57 1014.1
20260505184317 52 167 6.0 9.0 0.00 0.01 0.01 59 1014.1
20260505182317 51 148 6.0 10.0 0.00 0.01 0.01 60 1014.1
20260505181315 51 157 5.0 8.0 0.00 0.01 0.01 61 1014.1
20260505180316 51 157 2.0 5.0 0.00 0.01 0.01 60 1014.3
20260505175314 51 141 3.0 6.0 0.00 0.01 0.01 61 1014.3
20260505174315 51 127 3.0 5.0 0.00 0.01 0.01 62 1014.2
20260505173414 51 128 6.0 10.0 0.00 0.01 0.01 62 1014.4
20260505171515 50 173 3.0 4.0 0.00 0.01 0.01 65 1014.4
20260505170523 50 136 6.0 11.0 0.00 0.01 0.01 66 1014.4
20260505165517 50 141 3.0 8.0 0.00 0.01 0.01 67 1014.3
20260505164516 49 118 4.0 11.0 0.00 0.01 0.01 69 1014.2
20260505162619 49 141 2.0 8.0 0.00 0.01 0.01 68 1014.2
20260505161616 49 110 6.0 12.0 0.00 0.01 0.01 69 1014.1